Location: Cottbus
(51.7000°N, 14.3000°E)
Time: 10:36:42
(UTC+02:00)

ISS - Visible Passes

Search period start: 24 April 2024 00:00
Search period end: 04 May 2024 00:00
Orbit: 411 x 418 km, 51.6° (Epoch: 24 April)

Date Brightness Start Highest point End Pass type
(mag) Time Alt. Az. Time Alt. Az. Time Alt. Az.
25 Apr -2.3 04:42:35 11° SSW 04:45:18 27° SSE 04:48:11 10° E visible
26 Apr -1.9 03:55:12 17° S 03:56:16 19° SE 03:58:43 10° E visible
27 Apr -1.3 03:07:42 13° SE 03:07:42 13° SE 03:08:51 10° ESE visible
27 Apr -3.3 04:40:31 13° SW 04:43:19 47° SSE 04:46:32 10° E visible
28 Apr -2.8 03:52:55 26° SSW 03:54:04 35° SSE 03:57:08 10° E visible
29 Apr -2.2 03:05:12 24° SE 03:05:12 24° SE 03:07:35 10° E visible
29 Apr -3.8 04:38:01 11° WSW 04:41:09 73° SSE 04:44:28 10° E visible
30 Apr -1.1 02:17:24 12° ESE 02:17:24 12° ESE 02:17:47 10° E visible
30 Apr -3.6 03:50:13 28° SW 03:51:42 58° SSE 03:54:59 10° E visible
01 May -3.3 03:02:20 43° SSE 03:02:20 43° SSE 03:05:25 10° E visible
01 May -3.8 04:35:26 10° W 04:38:46 90° S 04:42:07 10° E visible
02 May -1.8 02:14:20 20° ESE 02:14:20 20° ESE 02:15:43 10° E visible
02 May -3.9 03:47:08 22° WSW 03:49:09 82° SSE 03:52:30 10° E visible
03 May -3.9 02:59:04 60° SSW 02:59:29 69° SSE 03:02:48 10° E visible
03 May -3.8 04:32:48 10° W 04:36:08 89° SSW 04:39:28 10° E visible
